Effingham, IL

6:10 PM CST on February 18, 2018 (GMT -0600)
Effingham

Weather History for K1H2 - March, 2014

Change the Weather History Date:

Thursday, March 13, 2014

  Actual Average (KMTO) Record (KMTO)
Temperature  
Mean Temperature 34 °F -  
Max Temperature 49 °F 48 °F 79 °F (1990)
Min Temperature 20 °F 31 °F 12 °F (1960)
Degree Days  
Heating Degree Days 30    
Moisture  
Dew Point 25 °F    
Average Humidity 70    
Maximum Humidity 91    
Minimum Humidity 47    
Precipitation  
Precipitation 0.00 in - - ()
Sea Level Pressure  
Sea Level Pressure 30.11 in    
Wind  
Wind Speed 4 mph (SSE)    
Max Wind Speed 14 mph    
Max Gust Speed 18 mph    
Visibility 9 miles    
Events      
Averages and records for this station are not official NWS values.
T = Trace of Precipitation, MM = Missing Value Source: NWS Daily Summary

Daily Weather History Graph

Daily Weather History Graph

Search for Another Location

Airport or City:

Trip Planner

Search our weather history database for the weather conditions in past years. The results will help you decide how hot, cold, wet, or windy it might be!

Date:

Astronomy

Mar. 13, 2014 Rise Set
Actual Time 7:08 AM CDT 6:59 PM CDT
Civil Twilight 6:41 AM CDT 7:25 PM CDT
Nautical Twilight 6:10 AM CDT 7:56 PM CDT
Astronomical Twilight 5:39 AM CDT 8:28 PM CDT
Moon 4:25 PM CDT (3/13) 5:14 AM CDT (3/13)
Length of Visible Light 12h 43m
Length of Day
11h 50m
Waxing Gibbous, 91% of the Moon is Illuminated
Mar 13
Waxing Gibbous
Mar 16
Full
Mar 23
Last Quarter
Mar 30
New
Apr 7
First Quarter

Hourly Weather History & Observations

Time (CDT) Temp. Windchill Dew Point Humidity Pressure Visibility Wind Dir Wind Speed Gust Speed Precip Events Conditions
12:15 AM 27.5 °F 23.6 °F 24.1 °F 87% 30.12 in 10.0 mi NNW 3.5 mph - N/A   Mostly Cloudy
12:35 AM 26.4 °F 22.4 °F 22.3 °F 84% 30.13 in 10.0 mi WNW 3.5 mph - N/A   Scattered Clouds
12:55 AM 24.4 °F - 21.4 °F 88% 30.12 in 10.0 mi Calm Calm - N/A   Scattered Clouds
1:15 AM 25.3 °F - 22.5 °F 89% 30.12 in 10.0 mi Calm Calm - N/A   Clear
1:35 AM 25.5 °F - 22.6 °F 89% 30.12 in 10.0 mi Calm Calm - N/A   Clear
1:55 AM 24.4 °F - 21.7 °F 89% 30.13 in 5.0 mi Calm Calm - N/A   Clear
2:15 AM 23.7 °F - 21.4 °F 91% 30.13 in 1.8 mi Calm Calm - N/A   Mist
2:35 AM 23.5 °F - 21.2 °F 91% 30.13 in 2.5 mi Calm Calm - N/A   Clear
2:55 AM 23.5 °F - 21.2 °F 91% 30.13 in 4.0 mi Calm Calm - N/A   Clear
3:15 AM 23.0 °F - 20.7 °F 91% 30.13 in - Calm Calm - N/A   Unknown
3:35 AM 22.8 °F - 20.3 °F 90% 30.13 in - Calm Calm - N/A   Unknown
3:55 AM 22.8 °F - 20.3 °F 90% 30.13 in - Calm Calm - N/A   Unknown
4:15 AM 22.6 °F - 20.1 °F 90% 30.13 in - Calm Calm - N/A   Unknown
4:35 AM 22.6 °F - 20.1 °F 90% 30.14 in - Calm Calm - N/A   Unknown
4:55 AM 21.7 °F - 19.2 °F 90% 30.14 in - Calm Calm - N/A   Mostly Cloudy
5:15 AM 21.6 °F - 19.0 °F 90% 30.15 in - Calm Calm - N/A   Unknown
5:35 AM 21.4 °F - 18.9 °F 90% 30.16 in - Calm Calm - N/A   Unknown
5:55 AM 21.2 °F - 18.5 °F 89% 30.16 in - Calm Calm - N/A   Unknown
6:15 AM 21.7 °F - 19.2 °F 90% 30.17 in - Calm Calm - N/A   Unknown
6:35 AM 20.8 °F - 18.1 °F 89% 30.18 in - Calm Calm - N/A   Mostly Cloudy
6:55 AM 21.4 °F - 18.7 °F 89% 30.18 in - Calm Calm - N/A   Unknown
7:15 AM 21.6 °F - 18.9 °F 89% 30.18 in - Calm Calm - N/A   Unknown
7:35 AM 21.6 °F - 18.9 °F 89% 30.19 in - Calm Calm - N/A   Unknown
7:55 AM 23.5 °F - 21.0 °F 90% 30.20 in - Calm Calm - N/A   Overcast
8:15 AM 24.8 °F 20.5 °F 22.3 °F 90% 30.20 in - ESE 3.5 mph - N/A   Mostly Cloudy
8:35 AM 26.1 °F 20.5 °F 23.5 °F 90% 30.20 in - SE 4.6 mph - N/A   Unknown
8:55 AM 27.1 °F 20.7 °F 24.3 °F 89% 30.21 in - SSE 5.8 mph - N/A   Unknown
9:15 AM 29.3 °F 21.5 °F 22.5 °F 76% 30.21 in - SSE 8.1 mph - N/A   Clear
9:35 AM 30.4 °F 22.9 °F 22.5 °F 72% 30.22 in - SSE 8.1 mph - N/A   Clear
9:55 AM 31.6 °F 24.4 °F 23.4 °F 71% 30.21 in - SSE 8.1 mph - N/A   Scattered Clouds
10:15 AM 32.0 °F 25.6 °F 23.4 °F 70% 30.20 in - SSE 6.9 mph - N/A   Mostly Cloudy
10:35 AM 33.3 °F 26.4 °F 24.8 °F 71% 30.21 in - SSE 8.1 mph - N/A   Mostly Cloudy
10:55 AM 33.6 °F 25.6 °F 24.6 °F 70% 30.21 in - SSW 10.4 mph - N/A   Mostly Cloudy
11:15 AM 35.1 °F 28.6 °F 24.3 °F 65% 30.20 in - SSE 8.1 mph - N/A   Scattered Clouds
11:35 AM 36.7 °F 29.9 °F 25.2 °F 63% 30.20 in - SSE 9.2 mph - N/A   Mostly Cloudy
11:55 AM 37.0 °F 31.0 °F 25.3 °F 63% 30.19 in - SSE 8.1 mph - N/A   Scattered Clouds
12:15 PM 38.8 °F 33.2 °F 26.8 °F 62% 30.18 in - South 8.1 mph - N/A   Mostly Cloudy
12:35 PM 39.6 °F 34.0 °F 25.9 °F 58% 30.18 in - South 8.1 mph - N/A   Overcast
12:50 PM - - - N/A% - - North - - N/A   Unknown
1:15 PM 41.2 °F 35.0 °F 26.8 °F 57% 30.15 in 10.0 mi SSE 10.4 mph - N/A   Overcast
1:35 PM 41.7 °F 35.2 °F 25.3 °F 52% 30.14 in 10.0 mi South 11.5 mph - N/A   Mostly Cloudy
1:55 PM 42.8 °F 36.6 °F 27.0 °F 54% 30.12 in 10.0 mi SE 11.5 mph 17.3 mph N/A   Scattered Clouds
2:15 PM 43.7 °F 37.7 °F 27.9 °F 54% 30.11 in 10.0 mi SE 11.5 mph 18.4 mph N/A   Clear
2:35 PM 45.1 °F 39.1 °F 28.6 °F 52% 30.10 in 10.0 mi South 12.7 mph 17.3 mph N/A   Clear
2:55 PM 45.7 °F 41.0 °F 28.6 °F 51% 30.09 in 10.0 mi South 9.2 mph 16.1 mph N/A   Clear
3:15 PM 46.2 °F 40.5 °F 28.8 °F 51% 30.09 in 10.0 mi SSE 12.7 mph 17.3 mph N/A   Clear
3:35 PM 47.5 °F - 29.8 °F 50% 30.08 in 10.0 mi SSE 13.8 mph 18.4 mph N/A   Clear
3:55 PM 47.7 °F - 30.2 °F 51% 30.08 in 10.0 mi SSE 11.5 mph 18.4 mph N/A   Clear
4:15 PM 48.2 °F - 30.2 °F 50% 30.07 in 10.0 mi SSE 10.4 mph - N/A   Clear
4:35 PM 48.6 °F - 29.8 °F 48% 30.06 in 10.0 mi South 11.5 mph 16.1 mph N/A   Clear
4:55 PM 48.7 °F - 29.5 °F 47% 30.06 in 10.0 mi South 10.4 mph 17.3 mph N/A   Clear
5:15 PM 49.1 °F - 30.0 °F 48% 30.05 in 10.0 mi South 10.4 mph 16.1 mph N/A   Clear
5:35 PM 49.1 °F - 30.6 °F 49% 30.05 in 10.0 mi SSE 11.5 mph 18.4 mph N/A   Clear
5:55 PM 49.1 °F - 29.7 °F 47% 30.05 in 10.0 mi South 11.5 mph 18.4 mph N/A   Clear
6:15 PM 48.7 °F - 29.7 °F 48% 30.04 in 10.0 mi South 9.2 mph 18.4 mph N/A   Clear
6:35 PM 47.8 °F - 30.4 °F 51% 30.04 in 10.0 mi South 6.9 mph 18.4 mph N/A   Clear
6:55 PM 46.6 °F - 30.7 °F 54% 30.03 in 10.0 mi SSE 6.9 mph - N/A   Clear
7:15 PM 46.4 °F 42.4 °F 30.9 °F 55% 30.02 in 10.0 mi SSE 8.1 mph - N/A   Clear
7:35 PM 46.2 °F 42.2 °F 30.7 °F 55% 30.02 in 10.0 mi SSE 8.1 mph - N/A   Clear
7:55 PM 45.9 °F 41.2 °F 30.2 °F 54% 30.02 in 10.0 mi SSE 9.2 mph - N/A   Clear
8:15 PM 45.0 °F 40.1 °F 30.2 °F 56% 30.02 in 10.0 mi SSE 9.2 mph - N/A   Clear
8:35 PM 44.8 °F 41.0 °F 30.0 °F 56% 30.02 in 10.0 mi SSE 6.9 mph - N/A   Clear
8:55 PM 44.2 °F 40.3 °F 30.2 °F 58% 30.02 in 10.0 mi SSE 6.9 mph - N/A   Clear
9:15 PM 43.7 °F 39.7 °F 30.2 °F 59% 30.02 in 10.0 mi SSE 6.9 mph - N/A   Clear
9:35 PM 43.9 °F 39.3 °F 30.0 °F 58% 30.01 in 10.0 mi SSE 8.1 mph - N/A   Clear
9:55 PM 43.5 °F 40.1 °F 29.8 °F 59% 30.01 in 10.0 mi SSE 5.8 mph - N/A   Clear
10:15 PM 43.0 °F 38.2 °F 29.8 °F 60% 30.00 in 10.0 mi SSE 8.1 mph - N/A   Clear
10:35 PM 42.8 °F 37.5 °F 29.8 °F 60% 29.99 in 10.0 mi SSE 9.2 mph - N/A   Clear
10:55 PM 42.8 °F 38.0 °F 29.7 °F 60% 29.99 in 10.0 mi SSE 8.1 mph - N/A   Clear
11:15 PM 42.1 °F 37.1 °F 29.8 °F 62% 29.98 in 10.0 mi SSE 8.1 mph - N/A   Clear
11:35 PM 42.3 °F 37.3 °F 29.3 °F 60% 29.98 in 10.0 mi SSE 8.1 mph - N/A   Clear
11:55 PM 41.9 °F 37.5 °F 29.5 °F 61% 29.97 in 10.0 mi SSE 6.9 mph - N/A   Clear